Tracking 18840 objects as of 18-November-2017
HD Live streaming from Space Station
objects crossing your sky now

FENGYUN 1C DEB

Track FENGYUN 1C DEB now!
10-day predictions


NORAD ID: 30520
Int'l Code: 1999-025AJJ
Perigee: 557.1 km
Apogee: 786.6 km
Inclination: 98.7 °
Period: 98.0 minutes
Semi major axis: 7042 km
RCS: 0.0177 m2 (small)
Launch date: May 10, 1999
Source: People's Republic of China (PRC)
Launch site: Taiyaun Space Center, China (TSC)

Note: This is SATELLITE DEBRIS
aabbcc
Your satellite tracking list
Your tracking list is empty




NASA's NSSDC Master Catalog

Two Line Element Set (TLE):
1 30520U 99025AJJ 17322.38887316  .00001095  00000-0  16235-3 0  9999
2 30520  98.6969 213.9979 0162921  52.4849   2.9824 14.68848430576315
Source of the keplerian elements: AFSPC